Starlink 5775

operational
NORAD ID: 56503 Int'l Des: 2023-065 Owner: SPXS Country: US Constellation: starlink
LEOCIRCULAR

关于 Starlink 5775

正在加载描述...

实时位置

正在加载3D地球...

即将过境

高度历史

Altitude vs Time

uPlot chart will show altitude changes over time

两行轨道根数

1 56503U 23065A 25305.01013572 .00001187 00000-0 10295-3 0 9996
2 56503 43.0040 189.9286 0001424 269.5652 90.5027 15.02530808137265
Epoch: Nov 1, 2025 • Age: 58 hours

当前状态

高度 558.6 km
速度 7.59 km/s
星下点 19.28°N, 8.76°E
发射日期 May 14, 2023
运行时间 2.4 years
类型 internet

技术详情

分类 Payload
质量 305.00 kg
干质量 290.00 kg
总质量 305.00 kg
长度 0.20 m
直径 2.80 m
跨度 9.00 m
形状 Box + pan
制造商 SPXS
平台类型 Starlink
阶段状态 In Orbit
所有者/国家 SPXS/US

大型星座

Loading constellations...